Weather in Kitayevskoye

Russia / Stavropol Krai     44°47′06″N   43°19′31″E
temp.,
°C
wind,
m/s
gust,
m/s
humid.,
%
clouds,
%
prec.,
mm/h
press.,
hPa
HPBL,
m
20 june, sun
sun2000:00+18e616635 0.0 1014506
03:00+16e4156429 0.0 1013362
06:00+17ene3117017 0.0 1013362
09:00+23ese510635 0.0 1012824
12:00+29ese61142100 0.0 10111465
15:00+32ese5940100 0.0 10101908
18:00+27e611570 0.0 1011340
21:00+21ene5116330 0.0 1013261
21 june, mon
mon2100:00+18ene39620 0.0 1012197
03:00+17ene22670 0.0 101218
06:00+19ene26710 0.0 1012200
09:00+24e57570 0.0 1012602
12:00+28ese69510 0.0 1011956
15:00+32ese914340 0.0 10091581
18:00+27e512420 0.0 1010306
21:00+21ene51246100 0.0 1013273
22 june, tue
tue2200:00+19e41249100 0.0 1012285
03:00+18ene225790 0.0 101111
06:00+20ne13600 0.0 1012113
09:00+24ese46500 0.0 1011587
12:00+29ese68450 0.0 1011944
15:00+33se511300 0.0 10091777
18:00+28ese61541100 0.0 1010377
21:00+23ene3342100 0.0 101242
23 june, wed
wed2300:00+21ne485098 0.0 1012140
03:00+19nnw11653 0.4 101211
06:00+20n23670 0.0 101291
09:00+26ene22550 0.0 1011656
12:00+29ese22450 0.0 10111025
15:00+31se45430 0.0 10111387
18:00+30sw23565 0.0 1012144
21:00+22e41247100 0.0 1014266
24 june, thu
thu2400:00+19ene22510 0.0 101411
03:00+17ne11540 0.0 101411
06:00+19n1258100 0.0 101458
09:00+24ene34544 0.0 1013615
12:00+29ese24430 0.0 10131028
15:00+32sse36294 0.0 10121880
18:00+29w465363 0.0 1011116
21:00+24n465844 0.0 101382